| time (UTC) | temp F | wind direction | speed knots | gust knots | rain 1hr in | rain 24hr in | rain mn in | humidity % | barometer mb |
| 20260505195942 | 87 | 163 | 4.3 | 6.1 | 0.00 | 0.00 | 0.00 | 62 | 1001.3 |
| 20260505195439 | 86 | 263 | 2.6 | 4.3 | 0.00 | 0.00 | 0.00 | 62 | 1001.5 |
| 20260505194937 | 87 | 202 | 6.1 | 7.8 | 0.00 | 0.00 | 0.00 | 62 | 1001.7 |
| 20260505194434 | 87 | 194 | 4.3 | 6.1 | 0.00 | 0.00 | 0.00 | 62 | 1001.4 |
| 20260505193934 | 85 | 196 | 2.6 | 4.3 | 0.00 | 0.00 | 0.00 | 64 | 1001.7 |
| 20260505193432 | 85 | 203 | 3.5 | 5.2 | 0.00 | 0.00 | 0.00 | 63 | 1001.7 |
| 20260505192929 | 86 | 231 | 7.8 | 8.7 | 0.00 | 0.00 | 0.00 | 63 | 1001.7 |
| 20260505192428 | 86 | 225 | 3.5 | 5.2 | 0.00 | 0.00 | 0.00 | 63 | 1001.8 |
| 20260505191925 | 86 | 172 | 4.3 | 6.1 | 0.00 | 0.00 | 0.00 | 64 | 1001.7 |
| 20260505191424 | 85 | 309 | 3.5 | 6.1 | 0.00 | 0.00 | 0.00 | 65 | 1001.6 |
| 20260505190920 | 85 | 241 | 3.5 | 5.2 | 0.00 | 0.00 | 0.00 | 66 | 1001.7 |
| 20260505190415 | 84 | 197 | 6.1 | 7.8 | 0.00 | 0.00 | 0.00 | 66 | 1001.6 |
| 20260505185910 | 84 | 216 | 2.6 | 4.3 | 0.00 | 0.00 | 0.00 | 66 | 1001.8 |
| 20260505185408 | 83 | 186 | 6.1 | 7.8 | 0.00 | 0.00 | 0.00 | 67 | 1001.4 |
| 20260505184904 | 83 | 220 | 3.5 | 4.3 | 0.00 | 0.00 | 0.00 | 68 | 1001.9 |
| 20260505184401 | 83 | 184 | 3.5 | 5.2 | 0.00 | 0.00 | 0.00 | 68 | 1001.6 |
| 20260505183858 | 83 | 222 | 5.2 | 7.0 | 0.00 | 0.00 | 0.00 | 68 | 1001.8 |
| 20260505183354 | 83 | 232 | 4.3 | 6.1 | 0.00 | 0.00 | 0.00 | 67 | 1001.8 |
| 20260505182851 | 83 | 182 | 6.1 | 8.7 | 0.00 | 0.00 | 0.00 | 68 | 1001.8 |
| 20260505182348 | 83 | 204 | 4.3 | 6.1 | 0.00 | 0.00 | 0.00 | 68 | 1001.7 |
| 20260505181845 | 83 | 200 | 5.2 | 7.0 | 0.00 | 0.00 | 0.00 | 68 | 1001.7 |
| 20260505181342 | 83 | 238 | 4.3 | 5.2 | 0.00 | 0.00 | 0.00 | 67 | 1002.0 |
| 20260505180839 | 83 | 230 | 2.6 | 2.6 | 0.00 | 0.00 | 0.00 | 68 | 1001.8 |
| 20260505180335 | 82 | 167 | 2.6 | 4.3 | 0.00 | 0.00 | 0.00 | 70 | 1001.9 |
| 20260505175832 | 82 | 182 | 7.0 | 8.7 | 0.00 | 0.00 | 0.00 | 69 | 1001.8 |
| 20260505175328 | 82 | 202 | 4.3 | 6.1 | 0.00 | 0.00 | 0.00 | 69 | 1001.7 |
| 20260505174825 | 82 | 209 | 3.5 | 4.3 | 0.00 | 0.00 | 0.00 | 70 | 1001.8 |
| 20260505174322 | 81 | 226 | 6.1 | 7.8 | 0.00 | 0.00 | 0.00 | 71 | 1002.0 |
| 20260505173818 | 81 | 193 | 5.2 | 7.8 | 0.00 | 0.00 | 0.00 | 71 | 1001.9 |
| 20260505173315 | 81 | 211 | 9.6 | 11.3 | 0.00 | 0.00 | 0.00 | 70 | 1002.0 |
| 20260505172812 | 80 | 244 | 3.5 | 4.3 | 0.00 | 0.00 | 0.00 | 72 | 1001.8 |
| 20260505172310 | 80 | 215 | 8.7 | 9.6 | 0.00 | 0.00 | 0.00 | 71 | 1002.0 |
| 20260505171804 | 81 | 270 | 6.1 | 7.0 | 0.00 | 0.00 | 0.00 | 71 | 1002.1 |
| 20260505171301 | 79 | 189 | 8.7 | 12.2 | 0.00 | 0.00 | 0.00 | 73 | 1002.2 |
| 20260505170757 | 79 | 202 | 4.3 | 7.0 | 0.00 | 0.00 | 0.00 | 73 | 1002.0 |
| 20260505170255 | 80 | 238 | 4.3 | 6.1 | 0.00 | 0.00 | 0.00 | 73 | 1001.9 |
| 20260505165749 | 80 | 189 | 3.5 | 6.1 | 0.00 | 0.00 | 0.00 | 72 | 1002.2 |
| 20260505165246 | 80 | 161 | 3.5 | 4.3 | 0.00 | 0.00 | 0.00 | 73 | 1001.9 |
| 20260505164741 | 80 | 216 | 3.5 | 5.2 | 0.00 | 0.00 | 0.00 | 73 | 1001.9 |
| 20260505164239 | 79 | 175 | 4.3 | 5.2 | 0.00 | 0.00 | 0.00 | 73 | 1001.9 |
| 20260505163737 | 78 | 162 | 5.2 | 7.0 | 0.00 | 0.00 | 0.00 | 74 | 1002.0 |
| 20260505163235 | 79 | 215 | 7.8 | 12.2 | 0.00 | 0.00 | 0.00 | 74 | 1001.8 |
| 20260505162732 | 78 | 175 | 5.2 | 7.0 | 0.00 | 0.00 | 0.00 | 74 | 1001.9 |
| 20260505162229 | 78 | 200 | 8.7 | 11.3 | 0.00 | 0.00 | 0.00 | 74 | 1001.7 |
| 20260505161726 | 78 | 136 | 1.7 | 2.6 | 0.00 | 0.00 | 0.00 | 74 | 1001.9 |
| 20260505161224 | 78 | 194 | 3.5 | 6.1 | 0.00 | 0.00 | 0.00 | 75 | 1001.9 |
| 20260505160721 | 78 | 200 | 10.4 | 14.8 | 0.00 | 0.00 | 0.00 | 75 | 1001.6 |
| 20260505160218 | 78 | 223 | 4.3 | 5.2 | 0.00 | 0.00 | 0.00 | 75 | 1001.8 |
| 20260505153157 | 77 | 228 | 7.8 | 8.7 | 0.00 | 0.00 | 0.00 | 77 | 1001.4 |
| 20260505152654 | 77 | 202 | 7.8 | 12.2 | 0.00 | 0.00 | 0.00 | 76 | 1001.6 |
| 20260505152150 | 76 | 226 | 7.8 | 12.2 | 0.00 | 0.00 | 0.00 | 78 | 1001.6 |
| 20260505151645 | 76 | 197 | 9.6 | 13.0 | 0.00 | 0.00 | 0.00 | 77 | 1001.6 |
| 20260505151143 | 76 | 229 | 5.2 | 7.8 | 0.00 | 0.00 | 0.00 | 78 | 1001.7 |
| 20260505150639 | 76 | 193 | 5.2 | 7.0 | 0.00 | 0.00 | 0.00 | 79 | 1001.6 |
| 20260505150136 | 76 | 190 | 5.2 | 7.0 | 0.00 | 0.00 | 0.00 | 79 | 1001.6 |
| 20260505140605 | 73 | 198 | 4.3 | 5.2 | 0.00 | 0.00 | 0.00 | 83 | 1001.3 |
| 20260505125018 | 72 | 191 | 3.5 | 5.2 | 0.00 | 0.00 | 0.00 | 85 | 1000.6 |
| 20260505124515 | 72 | 238 | 4.3 | 6.1 | 0.00 | 0.00 | 0.00 | 85 | 1000.5 |
| 20260505124011 | 72 | 195 | 6.1 | 6.1 | 0.00 | 0.00 | 0.00 | 85 | 1000.6 |
| 20260505123508 | 72 | 205 | 1.7 | 2.6 | 0.00 | 0.00 | 0.00 | 85 | 1000.6 |
| 20260505123004 | 71 | 209 | 4.3 | 7.0 | 0.00 | 0.00 | 0.00 | 85 | 1000.3 |
| 20260505122501 | 71 | 189 | 2.6 | 2.6 | 0.00 | 0.00 | 0.00 | 85 | 1000.2 |
| 20260505121958 | 72 | 251 | 5.2 | 7.8 | 0.00 | 0.00 | 0.00 | 85 | 1000.0 |
| 20260505121454 | 72 | 197 | 5.2 | 7.0 | 0.00 | 0.00 | 0.00 | 85 | 1000.2 |
| 20260505120950 | 72 | 148 | 2.6 | 2.6 | 0.00 | 0.00 | 0.00 | 85 | 1000.2 |
| 20260505120447 | 72 | 158 | 3.5 | 5.2 | 0.00 | 0.00 | 0.00 | 85 | 1000.1 |
| 20260505115946 | 72 | 183 | 5.2 | 6.1 | 0.00 | 0.00 | 0.00 | 85 | 999.8 |
| 20260505115443 | 72 | 220 | 1.7 | 1.7 | 0.00 | 0.00 | 0.00 | 84 | 1000.2 |
| 20260505114941 | 72 | 184 | 7.8 | 13.0 | 0.00 | 0.00 | 0.00 | 84 | 999.7 |
| 20260505114432 | 72 | 184 | 7.0 | 8.7 | 0.00 | 0.00 | 0.00 | 85 | 999.9 |
| 20260505113928 | 72 | 193 | 4.3 | 7.0 | 0.00 | 0.00 | 0.00 | 85 | 1000.0 |
| 20260505113425 | 72 | 212 | 6.1 | 7.8 | 0.00 | 0.00 | 0.00 | 85 | 999.8 |
| 20260505112921 | 72 | 238 | 7.0 | 7.8 | 0.00 | 0.00 | 0.00 | 84 | 1000.2 |
| 20260505112419 | 72 | 219 | 7.8 | 11.3 | 0.00 | 0.00 | 0.00 | 84 | 999.7 |
| 20260505111914 | 72 | 215 | 7.8 | 9.6 | 0.00 | 0.00 | 0.00 | 84 | 999.8 |
| 20260505111415 | 72 | 219 | 7.0 | 13.0 | 0.00 | 0.00 | 0.00 | 83 | 999.7 |
| 20260505110911 | 72 | 244 | 4.3 | 6.1 | 0.00 | 0.00 | 0.00 | 84 | 1000.2 |
| 20260505110408 | 72 | 220 | 4.3 | 5.2 | 0.00 | 0.00 | 0.00 | 84 | 1000.0 |
| 20260505101838 | 71 | 150 | 2.6 | 4.3 | 0.00 | 0.00 | 0.00 | 85 | 1000.0 |
| 20260505101334 | 71 | 269 | 5.2 | 7.0 | 0.00 | 0.00 | 0.00 | 85 | 1000.0 |
| 20260505100830 | 71 | 240 | 2.6 | 4.3 | 0.00 | 0.00 | 0.00 | 85 | 999.6 |
| 20260505100327 | 71 | 169 | 4.3 | 7.0 | 0.00 | 0.00 | 0.00 | 85 | 999.8 |
| 20260505095822 | 71 | 222 | 4.3 | 7.0 | 0.00 | 0.00 | 0.00 | 85 | 999.9 |
| 20260505095320 | 71 | 236 | 3.5 | 5.2 | 0.00 | 0.00 | 0.00 | 85 | 999.6 |
| 20260505094816 | 71 | 191 | 6.1 | 7.8 | 0.00 | 0.00 | 0.00 | 85 | 1000.3 |
| 20260505094313 | 71 | 169 | 5.2 | 6.1 | 0.00 | 0.00 | 0.00 | 85 | 1000.2 |
| 20260505093808 | 71 | 237 | 2.6 | 2.6 | 0.00 | 0.00 | 0.00 | 85 | 1000.3 |
| 20260505093307 | 71 | 196 | 3.5 | 6.1 | 0.00 | 0.00 | 0.00 | 85 | 1000.3 |
| 20260505092803 | 71 | 203 | 5.2 | 7.0 | 0.00 | 0.00 | 0.00 | 85 | 1000.1 |
| 20260505092304 | 71 | 210 | 5.2 | 7.0 | 0.00 | 0.00 | 0.00 | 85 | 1000.2 |
| 20260505091758 | 71 | 178 | 4.3 | 6.1 | 0.00 | 0.00 | 0.00 | 85 | 1000.4 |
| 20260505091256 | 71 | 195 | 3.5 | 6.1 | 0.00 | 0.00 | 0.00 | 85 | 1000.5 |
| 20260505090754 | 71 | 179 | 8.7 | 12.2 | 0.00 | 0.00 | 0.00 | 85 | 1000.3 |
| 20260505090252 | 71 | 220 | 4.3 | 7.0 | 0.00 | 0.00 | 0.00 | 85 | 1000.3 |
| 20260505085749 | 71 | 198 | 6.1 | 7.8 | 0.00 | 0.00 | 0.00 | 85 | 1000.3 |
| 20260505085247 | 71 | 201 | 4.3 | 5.2 | 0.00 | 0.00 | 0.00 | 86 | 1000.1 |
| 20260505084744 | 71 | 212 | 5.2 | 7.0 | 0.00 | 0.00 | 0.00 | 86 | 1000.3 |
| 20260505084243 | 71 | 185 | 3.5 | 6.1 | 0.00 | 0.00 | 0.00 | 86 | 1000.2 |
| 20260505083739 | 71 | 213 | 5.2 | 6.1 | 0.00 | 0.00 | 0.00 | 86 | 1000.2 |
| 20260505083236 | 71 | 212 | 4.3 | 8.7 | 0.00 | 0.00 | 0.00 | 85 | 1000.5 |
| 20260505082732 | 71 | 199 | 5.2 | 7.0 | 0.00 | 0.00 | 0.00 | 85 | 1000.5 |
| 20260505082230 | 71 | 220 | 7.8 | 9.6 | 0.00 | 0.00 | 0.00 | 85 | 1000.6 |
| 20260505081725 | 71 | 188 | 7.0 | 9.6 | 0.00 | 0.00 | 0.00 | 85 | 1000.5 |
| 20260505081223 | 71 | 207 | 6.1 | 7.8 | 0.00 | 0.00 | 0.00 | 85 | 1000.5 |
| 20260505080720 | 71 | 104 | 0.0 | 0.9 | 0.00 | 0.00 | 0.00 | 84 | 1000.3 |
| 20260505080215 | 71 | 215 | 7.8 | 11.3 | 0.00 | 0.00 | 0.00 | 84 | 1000.6 |
| 20260505075711 | 71 | 205 | 2.6 | 4.3 | 0.00 | 0.00 | 0.00 | 84 | 1000.6 |
| 20260505075209 | 71 | 175 | 9.6 | 12.2 | 0.00 | 0.00 | 0.00 | 83 | 1000.5 |
| 20260505074706 | 71 | 207 | 2.6 | 4.3 | 0.00 | 0.00 | 0.00 | 83 | 1000.5 |
| 20260505074203 | 72 | 210 | 6.1 | 7.8 | 0.00 | 0.00 | 0.00 | 83 | 1000.6 |
| 20260505073700 | 72 | 187 | 6.1 | 7.0 | 0.00 | 0.00 | 0.00 | 83 | 1000.7 |
| 20260505073158 | 72 | 261 | 2.6 | 6.1 | 0.00 | 0.00 | 0.00 | 82 | 1000.7 |
| 20260505072653 | 72 | 188 | 3.5 | 5.2 | 0.00 | 0.00 | 0.00 | 82 | 1000.9 |
| 20260505072150 | 72 | 233 | 4.3 | 6.1 | 0.00 | 0.00 | 0.00 | 82 | 1001.1 |
| 20260505071646 | 72 | 187 | 4.3 | 5.2 | 0.00 | 0.00 | 0.00 | 81 | 1001.2 |
| 20260505071144 | 72 | 186 | 6.1 | 9.6 | 0.00 | 0.00 | 0.00 | 81 | 1001.3 |
| 20260505070641 | 72 | 203 | 5.2 | 6.1 | 0.00 | 0.00 | 0.00 | 81 | 1001.4 |
| 20260505070137 | 72 | 208 | 3.5 | 5.2 | 0.00 | 0.00 | 0.00 | 80 | 1001.4 |
| 20260505065633 | 72 | 202 | 4.3 | 6.1 | 0.00 | 0.00 | 0.00 | 80 | 1001.3 |
| 20260505065130 | 72 | 190 | 2.6 | 5.2 | 0.00 | 0.00 | 0.00 | 80 | 1001.4 |
| 20260505064627 | 72 | 195 | 7.0 | 7.8 | 0.00 | 0.00 | 0.00 | 80 | 1001.5 |
| 20260505064125 | 72 | 180 | 6.1 | 7.0 | 0.00 | 0.00 | 0.00 | 79 | 1001.6 |
| 20260505063622 | 72 | 191 | 6.1 | 7.8 | 0.00 | 0.00 | 0.00 | 79 | 1001.6 |
| 20260505063118 | 72 | 189 | 3.5 | 6.1 | 0.00 | 0.00 | 0.00 | 79 | 1001.7 |
| 20260505062615 | 72 | 196 | 3.5 | 5.2 | 0.00 | 0.00 | 0.00 | 79 | 1001.7 |
| 20260505062112 | 72 | 214 | 3.5 | 5.2 | 0.00 | 0.00 | 0.00 | 79 | 1001.7 |
| 20260505061609 | 72 | 151 | 4.3 | 7.0 | 0.00 | 0.00 | 0.00 | 79 | 1001.9 |
| 20260505061107 | 72 | 203 | 5.2 | 7.8 | 0.00 | 0.00 | 0.00 | 79 | 1001.9 |
| 20260505060604 | 72 | 117 | 3.5 | 4.3 | 0.00 | 0.00 | 0.00 | 79 | 1001.7 |
| 20260505055556 | 72 | 200 | 4.3 | 6.1 | 0.00 | 0.00 | 0.00 | 78 | 1001.8 |
| 20260505055053 | 72 | 128 | 1.7 | 2.6 | 0.00 | 0.00 | 0.00 | 78 | 1001.7 |
| 20260505054550 | 72 | 214 | 4.3 | 6.1 | 0.00 | 0.00 | 0.00 | 78 | 1002.0 |
| 20260505054049 | 73 | 203 | 2.6 | 4.3 | 0.00 | 0.00 | 0.00 | 77 | 1002.1 |
| 20260505053545 | 72 | 120 | 1.7 | 2.6 | 0.00 | 0.00 | 0.00 | 77 | 1001.9 |
| 20260505053042 | 73 | 205 | 3.5 | 7.0 | 0.00 | 0.00 | 0.00 | 77 | 1002.1 |
| 20260505052539 | 73 | 195 | 4.3 | 6.1 | 0.00 | 0.00 | 0.00 | 77 | 1002.1 |
| 20260505052037 | 73 | 193 | 5.2 | 8.7 | 0.00 | 0.00 | 0.00 | 76 | 1002.1 |
| 20260505051533 | 73 | 232 | 3.5 | 6.1 | 0.00 | 0.00 | 0.00 | 76 | 1002.2 |
| 20260505051031 | 73 | 206 | 7.8 | 9.6 | 0.00 | 0.00 | 0.00 | 76 | 1002.2 |
| 20260505050529 | 73 | 161 | 4.3 | 6.1 | 0.00 | 0.00 | 0.00 | 76 | 1002.0 |
| 20260505041457 | 74 | 173 | 3.5 | 6.1 | 0.00 | 0.00 | 0.00 | 73 | 1002.7 |
| 20260505040954 | 74 | 186 | 2.6 | 5.2 | 0.00 | 0.00 | 0.00 | 73 | 1002.7 |
| 20260505040451 | 74 | 177 | 2.6 | 4.3 | 0.00 | 0.00 | 0.00 | 73 | 1002.8 |
| 20260505035948 | 74 | 222 | 3.5 | 6.1 | 0.00 | 0.00 | 0.00 | 73 | 1002.7 |
| 20260505035444 | 74 | 185 | 1.7 | 1.7 | 0.00 | 0.00 | 0.00 | 73 | 1002.8 |
| 20260505034942 | 74 | 163 | 1.7 | 1.7 | 0.00 | 0.00 | 0.00 | 72 | 1002.7 |
| 20260505034438 | 74 | 165 | 1.7 | 2.6 | 0.00 | 0.00 | 0.00 | 72 | 1002.8 |
| 20260505033935 | 74 | 248 | 5.2 | 6.1 | 0.00 | 0.00 | 0.00 | 72 | 1002.9 |
| 20260505033432 | 74 | 221 | 2.6 | 5.2 | 0.00 | 0.00 | 0.00 | 71 | 1002.8 |
| 20260505032930 | 75 | 204 | 7.0 | 8.7 | 0.00 | 0.00 | 0.00 | 71 | 1002.9 |
| 20260505032427 | 75 | 193 | 2.6 | 2.6 | 0.00 | 0.00 | 0.00 | 71 | 1003.0 |
| 20260505031923 | 75 | 110 | 6.1 | 8.7 | 0.00 | 0.00 | 0.00 | 71 | 1002.9 |
| 20260505031420 | 75 | 170 | 2.6 | 2.6 | 0.00 | 0.00 | 0.00 | 71 | 1003.0 |
| 20260505030917 | 75 | 191 | 4.3 | 7.0 | 0.00 | 0.00 | 0.00 | 71 | 1002.8 |
| 20260505030413 | 75 | 172 | 1.7 | 4.3 | 0.00 | 0.00 | 0.00 | 71 | 1002.9 |
| 20260505025908 | 75 | 216 | 5.2 | 7.0 | 0.00 | 0.00 | 0.00 | 71 | 1003.2 |
| 20260505025406 | 75 | 170 | 2.6 | 2.6 | 0.00 | 0.00 | 0.00 | 70 | 1003.0 |
| 20260505024905 | 75 | 224 | 3.5 | 6.1 | 0.00 | 0.00 | 0.00 | 70 | 1002.9 |
| 20260505024402 | 75 | 216 | 2.6 | 4.3 | 0.00 | 0.00 | 0.00 | 70 | 1002.8 |
| 20260505023859 | 75 | 151 | 1.7 | 2.6 | 0.00 | 0.00 | 0.00 | 70 | 1002.8 |
| 20260505023356 | 75 | 220 | 2.6 | 4.3 | 0.00 | 0.00 | 0.00 | 70 | 1002.4 |
| 20260505022853 | 75 | 207 | 2.6 | 4.3 | 0.00 | 0.00 | 0.00 | 70 | 1002.6 |
| 20260505022350 | 75 | 123 | 2.6 | 2.6 | 0.00 | 0.00 | 0.00 | 70 | 1002.6 |
| 20260505021848 | 75 | 196 | 5.2 | 7.0 | 0.00 | 0.00 | 0.00 | 70 | 1002.7 |
| 20260505021344 | 75 | 179 | 4.3 | 5.2 | 0.00 | 0.00 | 0.00 | 69 | 1002.4 |
| 20260505020840 | 75 | 177 | 1.7 | 1.7 | 0.00 | 0.00 | 0.00 | 69 | 1002.4 |
| 20260505020335 | 75 | 133 | 2.6 | 2.6 | 0.00 | 0.00 | 0.00 | 69 | 1002.4 |
| 20260505015832 | 75 | 192 | 3.5 | 5.2 | 0.00 | 0.00 | 0.00 | 69 | 1002.3 |
| 20260505015329 | 75 | 95 | 1.7 | 1.7 | 0.00 | 0.00 | 0.00 | 69 | 1002.4 |
| 20260505014827 | 75 | 200 | 0.9 | 1.7 | 0.00 | 0.00 | 0.00 | 68 | 1002.0 |
| 20260505014324 | 76 | 187 | 7.0 | 9.6 | 0.00 | 0.00 | 0.00 | 68 | 1002.2 |
| 20260505013820 | 76 | 279 | 3.5 | 7.0 | 0.00 | 0.00 | 0.00 | 68 | 1002.4 |
| 20260505013317 | 76 | 183 | 2.6 | 2.6 | 0.00 | 0.00 | 0.00 | 67 | 1002.3 |
| 20260505012816 | 76 | 205 | 2.6 | 4.3 | 0.00 | 0.00 | 0.00 | 67 | 1002.1 |
| 20260505012313 | 76 | 207 | 2.6 | 2.6 | 0.00 | 0.00 | 0.00 | 67 | 1002.2 |
| 20260505011809 | 76 | 234 | 7.8 | 8.7 | 0.00 | 0.00 | 0.00 | 66 | 1002.2 |
| 20260505011306 | 76 | 207 | 2.6 | 2.6 | 0.00 | 0.00 | 0.00 | 66 | 1002.2 |
| 20260505010802 | 77 | 98 | 0.9 | 1.7 | 0.00 | 0.00 | 0.00 | 66 | 1002.1 |
| 20260505010258 | 77 | 163 | 2.6 | 4.3 | 0.00 | 0.00 | 0.00 | 66 | 1002.3 |
| 20260505005754 | 77 | 141 | 3.5 | 6.1 | 0.00 | 0.00 | 0.00 | 65 | 1002.2 |
| 20260505005252 | 77 | 133 | 3.5 | 4.3 | 0.00 | 0.00 | 0.00 | 65 | 1001.8 |
| 20260505004749 | 77 | 199 | 6.1 | 7.8 | 0.00 | 0.00 | 0.00 | 64 | 1001.9 |
| 20260505004245 | 77 | 226 | 6.1 | 12.2 | 0.00 | 0.00 | 0.00 | 64 | 1001.9 |
| 20260505003742 | 77 | 154 | 3.5 | 6.1 | 0.00 | 0.00 | 0.00 | 64 | 1002.0 |
| 20260505003240 | 77 | 202 | 3.5 | 6.1 | 0.00 | 0.00 | 0.00 | 64 | 1002.3 |
| 20260505002736 | 77 | 228 | 1.7 | 4.3 | 0.00 | 0.00 | 0.00 | 64 | 1002.2 |
| 20260505002233 | 77 | 230 | 6.1 | 7.8 | 0.00 | 0.00 | 0.00 | 63 | 1002.2 |
| 20260505001731 | 78 | 183 | 7.8 | 11.3 | 0.00 | 0.00 | 0.00 | 63 | 1002.3 |
| 20260505001228 | 78 | 226 | 2.6 | 2.6 | 0.00 | 0.00 | 0.00 | 62 | 1002.4 |
| 20260505000725 | 78 | 198 | 8.7 | 11.3 | 0.00 | 0.00 | 0.00 | 62 | 1002.1 |
| 20260505000223 | 78 | 215 | 7.8 | 11.3 | 0.00 | 0.00 | 0.00 | 62 | 1002.2 |
| 20260504235719 | 78 | 232 | 10.4 | 13.0 | 0.00 | 0.00 | 0.00 | 62 | 1002.1 |
| 20260504235215 | 78 | 232 | 3.5 | 5.2 | 0.00 | 0.00 | 0.00 | 62 | 1002.3 |
| 20260504234713 | 78 | 168 | 2.6 | 4.3 | 0.00 | 0.00 | 0.00 | 62 | 1002.4 |
| 20260504234210 | 78 | 188 | 6.1 | 7.8 | 0.00 | 0.00 | 0.00 | 61 | 1002.8 |
| 20260504233706 | 78 | 204 | 7.8 | 13.0 | 0.00 | 0.00 | 0.00 | 62 | 1002.4 |
| 20260504233202 | 78 | 184 | 6.1 | 7.8 | 0.00 | 0.00 | 0.00 | 61 | 1002.7 |
| 20260504232700 | 79 | 212 | 2.6 | 4.3 | 0.00 | 0.00 | 0.00 | 61 | 1002.5 |
| 20260504232156 | 79 | 218 | 3.5 | 6.1 | 0.00 | 0.00 | 0.00 | 60 | 1002.6 |
| 20260504231653 | 79 | 78 | 6.1 | 13.0 | 0.00 | 0.00 | 0.00 | 61 | 1002.6 |
| 20260504231149 | 79 | 227 | 2.6 | 2.6 | 0.00 | 0.00 | 0.00 | 61 | 1002.8 |
| 20260504230646 | 80 | 200 | 7.8 | 13.9 | 0.00 | 0.00 | 0.00 | 60 | 1002.7 |
| 20260504230145 | 80 | 195 | 2.6 | 4.3 | 0.00 | 0.00 | 0.00 | 60 | 1002.6 |
| 20260504225643 | 80 | 159 | 3.5 | 5.2 | 0.00 | 0.00 | 0.00 | 59 | 1002.6 |
| 20260504225138 | 81 | 200 | 8.7 | 12.2 | 0.00 | 0.00 | 0.00 | 58 | 1002.8 |
| 20260504224635 | 80 | 184 | 6.1 | 8.7 | 0.00 | 0.00 | 0.00 | 58 | 1002.9 |
| 20260504224132 | 81 | 251 | 2.6 | 6.1 | 0.00 | 0.00 | 0.00 | 58 | 1003.0 |
| 20260504223629 | 81 | 211 | 2.6 | 4.3 | 0.00 | 0.00 | 0.00 | 58 | 1003.0 |
| 20260504223120 | 80 | 230 | 7.8 | 11.3 | 0.00 | 0.00 | 0.00 | 58 | 1002.8 |
| 20260504222617 | 80 | 231 | 2.6 | 4.3 | 0.00 | 0.00 | 0.00 | 58 | 1002.9 |
| 20260504222114 | 81 | 175 | 5.2 | 7.0 | 0.00 | 0.00 | 0.00 | 57 | 1002.7 |
| 20260504221611 | 80 | 214 | 7.0 | 8.7 | 0.00 | 0.00 | 0.00 | 57 | 1002.7 |
| 20260504221108 | 81 | 262 | 5.2 | 9.6 | 0.00 | 0.00 | 0.00 | 57 | 1002.9 |
| 20260504220604 | 80 | 195 | 5.2 | 7.0 | 0.00 | 0.00 | 0.00 | 58 | 1003.0 |
| 20260504215558 | 80 | 185 | 6.1 | 7.8 | 0.00 | 0.00 | 0.00 | 57 | 1003.2 |
| 20260504215056 | 80 | 150 | 5.2 | 8.7 | 0.00 | 0.00 | 0.00 | 57 | 1003.3 |
| 20260504214551 | 82 | 159 | 6.1 | 11.3 | 0.00 | 0.00 | 0.00 | 56 | 1003.3 |
| 20260504214048 | 80 | 195 | 5.2 | 7.0 | 0.00 | 0.00 | 0.00 | 56 | 1003.5 |
| 20260504213544 | 80 | 190 | 7.8 | 9.6 | 0.00 | 0.00 | 0.00 | 57 | 1003.5 |
| 20260504213041 | 80 | 136 | 4.3 | 6.1 | 0.00 | 0.00 | 0.00 | 58 | 1003.3 |
| 20260504212537 | 81 | 222 | 7.0 | 11.3 | 0.00 | 0.00 | 0.00 | 57 | 1003.5 |
| 20260504212035 | 81 | 216 | 7.0 | 9.6 | 0.00 | 0.00 | 0.00 | 56 | 1003.7 |
| 20260504211531 | 81 | 237 | 7.8 | 9.6 | 0.00 | 0.00 | 0.00 | 56 | 1003.8 |
| 20260504211029 | 81 | 153 | 7.0 | 9.6 | 0.00 | 0.00 | 0.00 | 56 | 1004.0 |
| 20260504210526 | 81 | 194 | 6.1 | 7.8 | 0.00 | 0.00 | 0.00 | 55 | 1003.9 |
| 20260504210022 | 81 | 191 | 6.1 | 7.8 | 0.00 | 0.00 | 0.00 | 56 | 1004.3 |
| 20260504205520 | 80 | 185 | 7.0 | 7.8 | 0.00 | 0.00 | 0.00 | 57 | 1004.2 |
| 20260504205018 | 80 | 226 | 1.7 | 1.7 | 0.00 | 0.00 | 0.00 | 57 | 1004.5 |
| 20260504204516 | 80 | 182 | 1.7 | 2.6 | 0.00 | 0.00 | 0.00 | 56 | 1004.4 |
| 20260504204015 | 80 | 184 | 5.2 | 6.1 | 0.00 | 0.00 | 0.00 | 55 | 1004.5 |
| 20260504203512 | 81 | 182 | 7.0 | 13.0 | 0.00 | 0.00 | 0.00 | 55 | 1004.8 |
| 20260504203009 | 81 | 155 | 2.6 | 7.8 | 0.00 | 0.00 | 0.00 | 55 | 1004.6 |
| 20260504202505 | 81 | 246 | 4.3 | 7.0 | 0.00 | 0.00 | 0.00 | 53 | 1004.7 |
| 20260504202001 | 80 | 242 | 5.2 | 6.1 | 0.00 | 0.00 | 0.00 | 55 | 1004.8 |
| 20260504201459 | 81 | 106 | 1.7 | 2.6 | 0.00 | 0.00 | 0.00 | 55 | 1005.0 |
| 20260504200956 | 82 | 219 | 6.1 | 7.8 | 0.00 | 0.00 | 0.00 | 53 | 1005.2 |
| 20260504200453 | 82 | 225 | 3.5 | 5.2 | 0.00 | 0.00 | 0.00 | 53 | 1005.4 |